sat.trackr.live / text

‹ back to catalog

STARLINK-1569

NORAD 46039 · 2020-055N

PAYLOAD ACTIVE UNKNOWN

§ Identity

Operator
Country
US
Launch date
2020-08-07
Launch site
AFETR
Launch vehicle
Mass (kg)
RCS (m²)

Purposes: comms

External: N2YO · Heavens-Above · Gunter

§ Orbital elements

Epoch: 2026-05-25T02:40:08.683968Z

Period
94.11 min
Inclination
53.1600°
Eccentricity
0.0001201
Mean motion
15.30189683 rev/d
Perigee alt
474.4 km
Apogee alt
476.1 km
Semi-major
6,853.4 km
B*
3.1484e-5
RAAN
131.7309°
Arg perigee
89.0013°
Mean anomaly
271.1125°
Rev number
32,058

§ Raw data

STARLINK-15691 46039U 20055N   26145.11121162  .00000573  00000+0  31484-4 0  99952 46039  53.1600 131.7309 0001201  89.0013 271.1125 15.30189683320589

JSON: /api/v1/satellites/46039 · /tle

For live sub-satellite position, see the globe view (requires WebGL).

§ Visibility from observer

Set your observer location to see the next 7 days of passes ≥ 10°. The values pass through the URL so the page stays shareable.

No JS? Fill the form by hand. The geolocation button needs JavaScript.